Find Starlink 35920

NORAD ID: 66623 Int'l Des: 2025-271 Owner: SPXS Country: US Constellation: starlink operational
LEOCIRCULAR

当前视图

正在加载3D地球...

About Starlink 35920

Starlink 35920 (NORAD 66623) is a starlink constellation satellite (v2 mini) launched Nov 23, 2025 by SPXS of US. It operates in LEO, CIRCULAR orbit with a mass of 575.00 kg.

关于 Starlink 35920

正在加载描述...

即将过境

Passes for default location (London). Set your location on the main map for personalized predictions.

高度历史

Loading altitude history...

两行轨道根数

1 66623U 25271G 26195.48752963 .00018796 00000-0 56641-3 0 9993
2 66623 53.1575 267.8820 0001009 80.3369 279.7748 15.34378417 37022
Epoch: Jul 14, 2026 • Age: 8 hours

当前状态

高度 467.4 km
远地点 / 近地点 N/A
速度 7.64 km/s
星下点 47.96°N, 92.18°E
发射日期 Nov 23, 2025
运行时间 0.6 years
类型 internet

技术详情

分类 Payload
质量 575.00 kg
干质量 530.00 kg
总质量 575.00 kg
长度 0.30 m
直径 4.10 m
跨度 29.00 m
形状 Box + pan
制造商 SPXS
平台类型 Starlink V2MO
阶段状态 In Orbit
所有者/国家 SPXS/US

Most Searched